Overview Statistics Trail Chart Weather Telemetry Raw packets
 

This is the latest recevied weather packets stored in our database for station/object IW1RCO-13. If no packets are shown the sender has not sent any weather packets the latest 10 day(s).

<< 8 9 10 11 12 13 14 >>
Time Temp. Humidity Pressure Rain* Wind** Luminosity Snow
1788614079 28.33° C 67% 1018.9 hPa - - - -
1788613769 28.89° C 65% 1018 hPa - - - -
1788613472 28.89° C 65% 1018.2 hPa - - - -
1788613169 28.33° C 66% 1018.5 hPa - - - -
1788612872 28.33° C 66% 1018.4 hPa - - - -
1788612569 27.78° C 68% 1018.4 hPa - - - -
1788612272 27.78° C 67% 1019.3 hPa - - - -
1788611968 27.78° C 66% 1018.6 hPa - - - -
1788611672 28.33° C 64% 1018.9 hPa - - - -
1788611071 27.78° C 67% 1019.5 hPa - - - -
1788610768 27.22° C 69% 1019.6 hPa - - - -
1788610471 26.67° C 69% 1018.8 hPa - - - -
1788610167 26.67° C 71% 1018.5 hPa - - - -
1788609871 26.67° C 71% 1019 hPa - - - -
1788609567 26.11° C 72% 1018.9 hPa - - - -
1788609271 26.11° C 72% 1019.3 hPa - - - -
1788608967 25.56° C 74% 1018.2 hPa - - - -
1788608671 25.56° C 75% 1018.6 hPa - - - -
1788608373 25.56° C 76% 1020.1 hPa - - - -
1788608070 25.56° C 75% 1019.2 hPa - - - -
1788607773 26.11° C 73% 1019.5 hPa - - - -
1788607470 25° C 78% 1019 hPa - - - -
1788607173 25° C 77% 1018.8 hPa - - - -
1788606869 25.56° C 74% 1019.4 hPa - - - -
1788606573 26.67° C 70% 1018.6 hPa - - - -

* Rain since midnight (hover to see other rain measurements)
** Current wind speed in m/s (hover to see current wind gust speed)